Regional Weather Roundup
Issued by NWS

Home | Current Version | Previous Version | Text Only | Print | Product List | Glossary On
Versions: 1 2 3 4 5 6 7 8 9 10 11 12 13 14 15 16 17 18 19 20 21 22 23 24 25 26 27 28 29 30 31 32 33 34 35 36 37 38 39 40 41 42 43 44 45 46 47 48 49 50
000
ASUS43 KMPX 270710
RWRMN
WEATHER ROUNDUP FOR MINNESOTA
NATIONAL WEATHER SERVICE TWIN CITIES/CHANHASSEN MN
200 AM CDT MON MAR 27 2017


NOTE: "FAIR" INDICATES FEW OR NO CLOUDS BELOW 12,000 FEET WITH NO
SIGNIFICANT WEATHER AND/OR OBSTRUCTIONS TO VISIBILITY. N/A MEANS
CURRENT SKY AND/OR WEATHER CONDITIONS ARE NOT AVAILABLE.

MNZ060>063-068>070-270800-
   Twin Cities Metro

CITY           SKY/WX    TMP DP  RH WIND       PRES   REMARKS
TWIN CITIES    CLOUDY    39  34  82 CALM      29.93S
ST PAUL        CLOUDY    38  36  92 NW5       29.94S
CRYSTAL        CLOUDY    38  32  79 NW5       29.93S
BLAINE         CLOUDY    37  37 100 NW5       29.93S
LAKEVILLE      CLOUDY    37  37 100 NW3       29.92F FOG
EDEN PRAIRIE   CLOUDY    39  35  86 N5        29.91F
SOUTH ST PAUL  CLOUDY    38  37  93 CALM      29.93S
LAKE ELMO      CLOUDY    36  36 100 N3        29.93S
$$
MNZ001>005-007-008-013>017-022>024-027-028-270800-
   Northwest Minnesota

CITY           SKY/WX    TMP DP  RH WIND       PRES   REMARKS
BEMIDJI        PTCLDY    32  31  93 CALM      29.93F
HALLOCK        FOG       30  28  93 CALM      29.96S VSB 1/4
ROSEAU         CLEAR     30  27  86 CALM      29.95F FOG
WARROAD        FOG       30  27  86 CALM      29.96R VSB 1/2
THIEF RVR FALL FOG       30  29  96 NE3       29.97R VSB 1/2
CROOKSTON      FOG       30  30 100 CALM      29.97S VSB 1/2
FOSSTON        CLOUDY    34  32  93 CALM      29.96R FOG
DETROIT LAKES  CLOUDY    37  36  93 CALM      29.96S
MOORHEAD       CLOUDY    34  34 100 CALM      29.97S FOG
PARK RAPIDS    CLOUDY    36  30  79 NW3       29.93R
MAHNOMEN       FAIR      34  33  97 CALM      29.95S FOG
$$
MNZ006-009>011-018-025>026-270800-
   North Central Minnesota

CITY           SKY/WX    TMP DP  RH WIND       PRES   REMARKS
BAUDETTE       CLOUDY    28  26  92 CALM      29.94R FOG
FLAG ISLAND    CLEAR     30  28  93 CALM      29.95R
INTL FALLS     PTCLDY    28  25  88 CALM      29.93R
WASKISH        CLOUDY    30  28  93 CALM      29.95S
BIG FORK       CLOUDY    34  28  80 CALM      29.93S
LONGVILLE      CLOUDY    30  28  93 CALM      29.93S
GRAND RAPIDS   CLOUDY    34  31  88 CALM      29.94S
CRANE LAKE     CLOUDY    30  28  93 CALM      29.95S
ORR            CLOUDY    36  28  75 CALM      29.90S
COOK           CLOUDY    34  28  80 CALM      29.93R
WALKER         CLOUDY    33  29  88 CALM      29.93F
$$
MNZ012-019>021-037-270800-
   Northeast Minnesota

CITY           SKY/WX    TMP DP  RH WIND       PRES   REMARKS
DULUTH         FOG       32  31  96 CALM      29.92S VSB 1/4
ELY            CLOUDY    28  28 100 CALM      29.91S
HIBBING        CLOUDY    29  29 100 CALM      29.92S
EVELETH        CLOUDY    32  31  95 W3        29.93S
DULUTH HARBOR  CLOUDY    34  34 100 CALM      29.96F
TWO HARBORS    HAZE      36  30  80 CALM      29.91F VSB 3/4
SILVER BAY     FOG       34  34 100 CALM      29.91F VSB 1/2
GRAND MARAIS     N/A     34  33  96 CALM      29.93F
G MARAIS ARPRT FOG       28  27  93 CALM      29.89F VSB 1
$$
MNZ029>031-032-039>041-046>048-054>057-064-270800-
   West Central Minnesota

CITY           SKY/WX    TMP DP  RH WIND       PRES   REMARKS
FERGUS FALLS   CLOUDY    37  36  93 NE3       29.99S
WHEATON        CLOUDY    36  34  93 CALM      29.98S
MORRIS           N/A     32  30  93 W5        29.94S FOG     WCI  27
ALEXANDRIA     CLOUDY    37  33  85 NW5       29.94S
ELBOW LAKE     FAIR      35  34  99 E3        29.96S
WADENA         CLOUDY    34  30  86 CALM      29.94R
GLENWOOD       CLOUDY    37  36  93 W3        29.95S
APPLETON       MOCLDY    34  30  86 CALM      29.95S FOG
BENSON         FOG       34  30  86 N6        29.96F VSB 3/4 WCI  29
ORTONVILLE     CLOUDY    36  32  87 N3        29.95F
MADISON        FOG       36  36 100 W5        29.96S VSB 1
WILLMAR        FAIR      36  36 100 CALM      29.96R
$$
MNZ033>034-036-042>043-049>051-058-059-270800-
   Central Minnesota

CITY           SKY/WX    TMP DP  RH WIND       PRES   REMARKS
ST CLOUD       CLOUDY    36  36 100 CALM      29.93F
SAUK CENTRE    CLOUDY    35  33  93 SE3       29.94S
PAYNESVILLE      N/A     33  33 100 W5        29.94S WCI  28
AITKIN         CLOUDY    34  28  80 CALM      29.92S
PINE RIVER     PTCLDY    32  30  93 CALM      29.97R
BRAINERD       CLOUDY    34  32  92 S3        29.94S
STAPLES        MOCLDY    34  30  86 CALM      29.93S
LONG PRAIRIE   CLOUDY    36  32  87 CALM      29.93F
LITTLE FALLS   CLOUDY    34  32  93 CALM      29.94S
LITCHFIELD     CLOUDY    37  37 100 CALM      29.94S
BUFFALO        CLOUDY    37  36  93 CALM      29.94F
MAPLE LAKE     CLOUDY    38  37  99 CALM      29.94F
HUTCHINSON     CLOUDY    38  37  99 CALM      29.94F
$$
MNZ037-044-045-052-053-270800-
   East Central Minnesota

CITY           SKY/WX    TMP DP  RH WIND       PRES   REMARKS
PRINCETON      CLOUDY    37  36  93 N3        29.93F FOG
MORA           CLOUDY    36  34  93 CALM      29.96S FOG
CAMBRIDGE      CLOUDY    37  36  93 NW3       29.92F FOG
RUSH CITY      CLOUDY    35  33  94 CALM      29.93F
MOOSE LAKE     CLOUDY    32  32 100 CALM      29.92F FOG
CLOQUET        CLOUDY    30  28  93 CALM      29.93S FOG
MCGREGOR       CLOUDY    32  30  93 CALM      29.93F
$$
MNZ071>073-080-081-089-090-097-098-270800-
   Southwest Minnesota

CITY           SKY/WX    TMP DP  RH WIND       PRES   REMARKS
MONTEVIDEO     MOCLDY    36  34  93 NW5       29.98R
GRANITE FALLS  MOCLDY    36  34  94 W7        29.97R
CANBY          CLOUDY    38  37  96 CALM      29.97R
MARSHALL       CLOUDY    38  36  92 W8        29.95R
REDWOOD FALLS  CLOUDY    40  37  89 S3        29.94S
OLIVIA         CLOUDY    39  36  87 CALM      29.94R
PIPESTONE      FOG       32  28  86 E3        29.94R VSB 1/2
WINDOM         PTCLDY    39  37  93 CALM      29.93S
WORTHINGTON    CLOUDY    37  36  96 W7        29.94R
JACKSON        CLOUDY    36  36 100 NW5       29.93F FOG
TRACY          CLOUDY    41  38  91 W6        29.95R
SLAYTON        CLOUDY    34  34  99 W7        29.94S WCI  28
$$
MNZ065>067-074>077-082>085-091>093-270800-
   South Central Minnesota

CITY           SKY/WX    TMP DP  RH WIND       PRES   REMARKS
MANKATO        CLOUDY    38  37  97 NW5       29.94R
NEW ULM        CLOUDY    37  36  93 NW3       29.93F
ST JAMES       CLOUDY    37  37 100 CALM      29.94F
FAIRMONT       CLOUDY    39  37  92 NW3       29.93S
GLENCOE        CLOUDY    38  38 100 CALM      29.93F
FARIBAULT      CLOUDY    39  37  93 CALM      29.93S FOG
OWATONNA       FOG       39  37  93 CALM      29.92S VSB 3/4
WASECA         FOG       37  36  93 NW3       29.94S VSB 1/2
ALBERT LEA     CLOUDY    37  37 100 CALM      29.91F FOG
$$
MNZ078>079-086>088-094>096-270800-
   Southeast Minnesota

CITY           SKY/WX    TMP DP  RH WIND       PRES   REMARKS
ROCHESTER      CLOUDY    38  38 100 NW3       29.91S FOG
RED WING       DRIZZLE   39  37  93 NW3       29.92S
STANTON        CLOUDY    39  37  94 CALM      29.92S FOG
DODGE CENTER   CLOUDY    37  37 100 NW3       29.91S FOG
WINONA         CLOUDY    41  37  87 CALM      29.92S
AUSTIN         FOG       39  37  93 CALM      29.91F VSB 1/2
PRESTON        FOG       38  37  97 NW3       29.91F VSB 1/2
$$
ABBREVIATIONS USED IN REMARKS
   TC - TEMPERATURES IN CELSIUS
  WCI - WIND CHILL INDEX
   HX - HEAT INDEX
  VSB - VISIBILITY
$$



USA.gov is the U.S. government's official web portal to all federal, state and local government web resources and services.